Voltar ao catálogo

STARLINK-35636

AtivoComunicaçõesVLEO
NORAD 66160·PAYLOAD·🇺🇸 United States

Lançado Oct 25, 2025 de Cape Canaveral Space Force Station

Loading…

Próximas Passagens (próximas 24 horas)

TLE

AtualizadoSource: CelesTrak SupGP

Época: Sep 14, 2026, 21:33 UTC

1 66160C 25240Q   26257.89840278  .00053448  00000+0  15804-2 0  2570
2 66160  53.1571 261.5692 0001496 108.1312 151.2390 15.34337400    12

Acompanhe STARLINK-35636 em tempo real com AllMySat

Download on the App Store